星链-31479 (STARLINK-31479 )

导读

STARLINK-31479是美国SpaceX星链星座中的一颗卫星,于2024年3月24日发射。星链计划旨在构建全球卫星互联网星座,为全球偏远地区、海洋等网络覆盖薄弱区域提供高速低延迟的互联网服务。该卫星加入星座后,进一步扩充了星链的卫星网络规模,推进了星链全球覆盖的建设进程。

基本信息
目录编号:
59316
目录名称:
STARLINK-31479
国际标识:
2024-056W
轨道中心:
EARTH
卫星名称:
星链-31479
卫星全名:
星链-31479 (STARLINK-31479 )
卫星状态:
在轨 (已飞行894 天)
发射日期:
2024-03-24 UTC
国别 :
美国 (US)
星等 :
--
轨道信息
数据来源 国际轨道数据 AOE轨道数据
星历时间 2026-09-04T12:06:44+0800
11小时前
查看轨道信息
2026-09-04T03:00:00+0800
21小时前
查看轨道信息
半长轴 6861.197km 6861.192km
偏心率 0.0001317 0.0001112
轨道倾角 43.002° 43.003°
近地点辐角 278.180° 270.860°
升交点赤经 306.810° 308.957°
平近点角 81.890° 158.855°
近地点 482.156km 482.292km
远地点 483.964km 483.818km
周期 94.267分钟 94.267分钟
每日圈数 15.275765 15.275782
详细信息
固有亮度:
5
最大亮度:
0.3
卫星平台:
Starlink v2.0 mini
覆盖范围:
全球
运营商:
太空探索技术公司
运营商所在国:
美国
制造商(研发单位):
太空探索技术公司
制造商所在国:
美国
使用方式:
暂无
卫星简介
星链(Starlink)计划是由太空探索技术公司(SpaceX)提出的一个巨型低轨卫星互联网星座项目,计划在2019年至2024年间在太空搭建由约1.2万颗卫星组成的“星链”网络,其中1584颗将部署在地球上空550千米处的近地轨道,并从2020年开始工作。该卫星仍在工作。
2D轨道图
3D轨道图
轨道高度分析图
轨道倾角分析图
轨道综合分析图
查看轨道综合分析图
交会数据列表
事件ID 空间交会对象 最接近时刻(TCA) 交会距离 交会风险概率(CRP) 交会风险指数(CRI) 操作
CDM_260901-054305-931606-764121
2026-09-01T
05:43:10+0000
1.604 km
极远距离
3.483388E-6 低风险 0.46
CDM_260901-071705-931606-764121
2026-09-01T
07:17:19+0000
2.080 km
极远距离
1.72493E-6 低风险 0.4